Temp
-10 -9 -9 -9 -9 -9 -9 -9 -9 -9 -9 -9 -9 -9 -10 -10 -10 -10 -10 -11 -11 -11 -11 -11 -11 -11 -10 -10 -10 -10 -10 -11 -11 -11 -11 -11 -10 -10 -10 -10 -10 -11 -11
-9 -9 -9 -9 -9 -9 -9 -9 -9 -9 -9 -9 -10 -10 -10 -10 -10 -10 -11 -11 -11 -11 -11 -11 -11 -11 -11 -11 -11 -11 -11 -11 -11 -11 -11 -11 -11 -11 -11 -11 -11 -11 -11
-9 -9 -9 -9 -9 -9 -9 -9 -9 -9 -9 -10 -10 -10 -10 -10 -10 -10 -10 -11 -11 -11 -11 -11 -11 -11 -11 -11 -11 -12 -11 -11 -11 -11 -11 -11 -11 -11 -11 -11 -11 -11 -11
-9 -9 -9 -9 -9 -9 -9 -9 -10 -10 -10 -10 -10 -10 -10 -10 -10 -11 -11 -11 -11 -11 -11 -11 -11 -11 -11 -12 -12 -12 -12 -12 -12 -12 -12 -11 -11 -11 -11 -11 -11 -11 -11
-9 -9 -9 -9 -9 -9 -9 -9 -10 -10 -10 -10 -10 -10 -10 -10 -11 -11 -11 -11 -11 -11 -11 -11 -12 -12 -12 -12 -12 -12 -12 -12 -11 -12 -12 -11 -11 -11 -11 -11 -11 -11 -11
-9 -9 -9 -9 -10 -10 -10 -9 -10 -10 -10 -10 -10 -10 -10 -11 -11 -11 -11 -11 -11 -11 -11 -11 -12 -12 -12 -12 -12 -12 -12 -12 -12 -11 -11 -12 -11 -11 -11 -11 -11 -11 -11
-9 -9 -9 -9 -10 -10 -10 -10 -10 -10 -11 -11 -11 -11 -11 -11 -11 -11 -11 -11 -11 -11 -11 -12 -12 -12 -12 -12 -12 -12 -12 -12 -12 -12 -12 -12 -12 -12 -11 -12 -12 -11 -11
-9 -9 -9 -9 -9 -10 -10 -10 -10 -10 -11 -11 -11 -11 -11 -11 -11 -11 -11 -12 -12 -12 -12 -12 -12 -12 -12 -12 -12 -12 -12 -12 -12 -12 -12 -12 -12 -12 -12 -12 -12 -12 -12
-9 -10 -10 -9 -10 -10 -10 -10 -10 -11 -11 -11 -11 -11 -12 -12 -12 -12 -12 -12 -12 -12 -12 -12 -12 -12 -12 -12 -12 -12 -12 -12 -12 -12 -12 -12 -11 -12 -12 -12 -12 -12 -12
-10 -9 -10 -10 -10 -10 -10 -11 -11 -11 -11 -11 -12 -12 -12 -12 -12 -12 -12 -12 -12 -12 -12 -12 -12 -12 -12 -12 -12 -12 -12 -12 -12 -12 -12 -12 -12 -12 -12 -12 -12 -12 -12
-10 -9 -9 -10 -10 -10 -10 -11 -11 -11 -11 -11 -12 -12 -12 -12 -12 -12 -12 -12 -12 -12 -12 -12 -12 -12 -12 -13 -12 -12 -12 -12 -12 -12 -12 -12 -12 -12 -12 -12 -12 -12 -12
-10 -10 -10 -10 -10 -11 -11 -11 -11 -11 -11 -11 -12 -12 -12 -12 -13 -13 -13 -13 -13 -13 -12 -12 -12 -12 -12 -13 -13 -13 -12 -12 -12 -12 -12 -12 -12 -12 -12 -12 -12 -12 -12
-10 -10 -10 -10 -11 -11 -11 -11 -11 -11 -11 -12 -12 -12 -13 -13 -13 -13 -13 -13 -13 -13 -13 -13 -13 -13 -13 -13 -13 -13 -13 -13 -13 -12 -12 -12 -12 -12 -13 -13 -13 -13 -12
-10 -10 -10 -10 -11 -11 -11 -11 -11 -11 -12 -12 -12 -13 -13 -13 -13 -14 -14 -14 -13 -13 -13 -13 -13 -13 -13 -13 -13 -13 -13 -13 -13 -13 -13 -13 -13 -13 -13 -13 -13 -13 -13
-10 -10 -10 -10 -11 -11 -11 -12 -11 -11 -12 -12 -12 -13 -13 -13 -14 -14 -14 -14 -14 -14 -13 -13 -13 -13 -13 -13 -13 -13 -13 -13 -13 -13 -13 -13 -13 -13 -13 -13 -13 -13 -13
-10 -11 -10 -10 -11 -11 -12 -12 -11 -12 -12 -12 -12 -13 -13 -14 -14 -14 -14 -14 -14 -14 -14 -14 -13 -13 -14 -14 -13 -13 -13 -13 -14 -14 -14 -13 -13 -13 -13 -13 -13 -13 -13
-10 -11 -11 -11 -11 -11 -12 -12 -12 -12 -12 -12 -12 -13 -13 -14 -14 -14 -15 -15 -15 -15 -14 -14 -14 -14 -14 -14 -14 -14 -14 -14 -14 -14 -14 -14 -14 -14 -14 -13 -13 -13 -13
-11 -11 -11 -11 -11 -11 -11 -11 -12 -12 -12 -12 -13 -13 -13 -14 -14 -15 -15 -15 -15 -15 -14 -14 -14 -14 -14 -14 -15 -15 -15 -14 -14 -14 -14 -14 -14 -14 -14 -14 -13 -14 -14
-10 -11 -11 -11 -11 -11 -11 -11 -12 -12 -12 -12 -13 -13 -14 -14 -14 -15 -15 -15 -15 -15 -15 -15 -15 -15 -15 -15 -15 -15 -15 -15 -14 -14 -15 -14 -14 -14 -14 -14 -14 -14 -13
-10 -11 -11 -11 -11 -11 -12 -12 -12 -12 -12 -12 -13 -13 -14 -15 -15 -15 -15 -15 -15 -15 -15 -15 -15 -15 -16 -15 -15 -16 -15 -15 -15 -15 -15 -15 -15 -14 -14 -14 -14 -14 -14
-11 -11 -12 -12 -11 -12 -12 -12 -12 -12 -12 -12 -13 -13 -14 -14 -15 -15 -15 -15 -15 -15 -15 -15 -15 -15 -16 -17 -16 -16 -16 -16 -16 -15 -15 -15 -15 -15 -14 -14 -14 -14 -14
-11 -12 -12 -12 -12 -12 -12 -12 -12 -12 -12 -12 -13 -13 -13 -14 -15 -15 -15 -15 -15 -15 -15 -15 -15 -15 -16 -17 -17 -17 -17 -16 -16 -16 -16 -16 -15 -15 -15 -14 -14 -15 -15
-11 -12 -12 -13 -13 -12 -12 -12 -12 -12 -12 -13 -13 -13 -14 -14 -14 -15 -15 -15 -15 -15 -15 -15 -15 -15 -16 -16 -16 -17 -17 -17 -17 -16 -16 -16 -16 -15 -15 -15 -15 -15 -15
-11 -12 -12 -12 -13 -13 -12 -12 -12 -13 -13 -13 -13 -13 -13 -14 -14 -15 -15 -15 -15 -16 -16 -16 -16 -16 -16 -16 -16 -16 -17 -17 -17 -17 -16 -16 -16 -16 -16 -16 -16 -16 -16
-11 -11 -12 -12 -13 -13 -13 -13 -14 -13 -14 -14 -13 -13 -13 -14 -14 -15 -15 -16 -16 -16 -16 -16 -16 -16 -16 -16 -16 -17 -17 -18 -17 -17 -16 -16 -17 -17 -17 -17 -17 -17 -16
-12 -12 -12 -12 -13 -13 -13 -13 -13 -13 -14 -13 -13 -13 -13 -14 -14 -15 -16 -16 -16 -16 -16 -16 -16 -16 -16 -16 -17 -18 -18 -18 -17 -17 -17 -17 -17 -17 -17 -17 -17 -17 -17
Height
5867 5865 5864 5862 5860 5858 5857 5856 5855 5854 5852 5851 5849 5847 5846 5845 5844 5844 5844 5843 5843 5842 5840 5839 5840 5840 5839 5839 5838 5839 5839 5839 5838 5838 5838 5838 5838 5837 5837 5837 5836 5836 5836
5863 5863 5861 5860 5858 5856 5854 5853 5852 5852 5850 5848 5847 5846 5845 5845 5844 5843 5842 5841 5840 5839 5838 5838 5838 5837 5837 5836 5836 5837 5837 5836 5837 5836 5836 5836 5836 5835 5836 5834 5833 5833 5834
5859 5859 5859 5857 5856 5854 5852 5850 5849 5848 5846 5845 5844 5843 5843 5842 5842 5842 5841 5840 5839 5837 5835 5835 5835 5834 5833 5834 5833 5833 5834 5834 5835 5835 5834 5833 5833 5833 5832 5832 5832 5832 5833
5855 5855 5854 5854 5853 5851 5849 5847 5846 5844 5844 5843 5841 5840 5840 5839 5839 5838 5838 5837 5836 5835 5833 5832 5831 5831 5831 5832 5831 5831 5832 5832 5833 5833 5832 5831 5831 5831 5830 5831 5831 5831 5831
5852 5850 5849 5849 5848 5847 5846 5844 5843 5840 5839 5839 5838 5837 5836 5836 5836 5836 5835 5834 5833 5833 5831 5829 5829 5828 5829 5830 5829 5829 5829 5829 5830 5831 5830 5829 5829 5829 5829 5829 5829 5829 5830
5848 5846 5845 5844 5843 5842 5842 5841 5840 5837 5836 5835 5834 5833 5833 5833 5833 5833 5833 5833 5832 5830 5830 5828 5827 5827 5827 5827 5827 5827 5828 5828 5828 5828 5828 5827 5826 5826 5827 5827 5827 5827 5827
5843 5842 5841 5840 5838 5837 5837 5837 5836 5834 5832 5831 5830 5830 5829 5829 5829 5830 5830 5829 5829 5828 5827 5826 5825 5825 5824 5824 5825 5825 5825 5825 5825 5825 5826 5826 5824 5824 5824 5825 5825 5825 5825
5839 5838 5837 5837 5835 5833 5832 5832 5831 5830 5829 5828 5827 5826 5825 5825 5825 5825 5825 5825 5825 5824 5824 5823 5821 5821 5821 5821 5822 5822 5822 5822 5822 5822 5823 5823 5822 5821 5821 5821 5821 5821 5821
5837 5835 5833 5832 5830 5829 5827 5827 5827 5826 5824 5823 5822 5822 5821 5820 5820 5821 5820 5821 5821 5820 5820 5820 5818 5817 5818 5818 5818 5818 5818 5819 5818 5818 5819 5819 5819 5819 5818 5817 5817 5817 5817
5829 5829 5828 5827 5825 5824 5822 5822 5821 5819 5819 5818 5817 5817 5816 5816 5815 5815 5815 5815 5815 5815 5815 5815 5816 5814 5814 5815 5814 5814 5813 5814 5815 5814 5815 5815 5815 5814 5814 5813 5813 5813 5813
5822 5820 5820 5820 5819 5818 5817 5816 5815 5814 5813 5812 5811 5811 5811 5811 5810 5809 5809 5808 5808 5809 5810 5810 5810 5811 5810 5810 5810 5809 5809 5809 5810 5810 5810 5810 5810 5810 5810 5810 5809 5808 5808
5814 5813 5813 5811 5812 5811 5810 5810 5810 5809 5808 5806 5806 5806 5805 5806 5805 5804 5804 5803 5802 5801 5802 5804 5804 5806 5806 5806 5805 5804 5804 5804 5805 5805 5805 5804 5804 5805 5805 5803 5803 5802 5802
5808 5807 5806 5804 5804 5804 5803 5802 5802 5802 5801 5800 5800 5800 5800 5800 5799 5799 5799 5799 5798 5797 5795 5795 5797 5798 5800 5801 5800 5799 5798 5798 5798 5799 5798 5798 5799 5798 5798 5796 5796 5796 5795
5800 5800 5798 5796 5796 5796 5795 5796 5795 5795 5794 5793 5794 5793 5794 5795 5794 5793 5793 5793 5792 5791 5790 5790 5789 5791 5792 5794 5794 5794 5794 5793 5793 5793 5793 5792 5792 5791 5790 5789 5788 5788 5787
5793 5791 5789 5787 5788 5788 5787 5787 5788 5787 5787 5786 5786 5786 5788 5788 5788 5787 5787 5785 5785 5785 5784 5784 5784 5783 5784 5785 5787 5787 5788 5788 5787 5786 5786 5785 5784 5783 5782 5781 5781 5780 5780
5781 5783 5781 5781 5780 5779 5779 5778 5778 5778 5778 5778 5778 5779 5780 5781 5781 5781 5780 5779 5778 5777 5777 5777 5777 5777 5777 5776 5778 5779 5779 5779 5779 5778 5778 5777 5776 5774 5772 5771 5771 5771 5770
5773 5773 5774 5771 5772 5771 5770 5768 5769 5768 5769 5769 5769 5771 5773 5773 5773 5774 5773 5772 5771 5770 5769 5769 5770 5770 5770 5769 5769 5770 5770 5769 5769 5769 5769 5768 5767 5766 5764 5762 5762 5761 5760
5763 5763 5762 5763 5763 5761 5762 5759 5760 5760 5759 5759 5760 5761 5763 5764 5765 5765 5765 5764 5763 5762 5761 5762 5761 5762 5762 5762 5761 5761 5761 5761 5761 5760 5758 5757 5756 5756 5754 5753 5752 5751 5750
5753 5754 5753 5753 5753 5752 5751 5751 5751 5751 5751 5750 5752 5753 5754 5755 5756 5756 5756 5755 5755 5754 5753 5753 5753 5753 5754 5754 5754 5753 5752 5752 5751 5750 5749 5748 5746 5745 5744 5743 5742 5741 5739
5746 5745 5744 5745 5744 5742 5741 5741 5740 5740 5740 5741 5742 5744 5745 5746 5747 5747 5747 5747 5747 5746 5745 5745 5744 5744 5745 5745 5745 5744 5744 5743 5742 5741 5740 5738 5737 5735 5734 5732 5731 5728 5725
5737 5736 5736 5735 5735 5733 5732 5731 5730 5730 5731 5731 5733 5734 5735 5736 5737 5738 5738 5738 5738 5738 5737 5736 5736 5736 5735 5735 5735 5734 5734 5732 5732 5731 5730 5728 5726 5724 5722 5720 5718 5715 5712
5727 5725 5726 5726 5725 5723 5721 5720 5720 5720 5721 5721 5722 5723 5725 5726 5726 5728 5728 5729 5729 5728 5727 5727 5726 5726 5725 5725 5724 5723 5722 5723 5721 5720 5719 5717 5715 5712 5709 5707 5705 5702 5698
5717 5715 5715 5715 5713 5712 5711 5711 5712 5711 5711 5712 5714 5716 5716 5716 5716 5717 5718 5719 5719 5719 5718 5717 5716 5716 5715 5715 5714 5713 5712 5712 5712 5710 5708 5706 5703 5701 5698 5696 5692 5688 5683
5706 5702 5702 5702 5702 5700 5701 5703 5702 5701 5701 5702 5703 5703 5704 5705 5706 5707 5707 5708 5707 5707 5707 5706 5706 5707 5705 5704 5703 5702 5703 5703 5701 5700 5698 5695 5693 5690 5687 5684 5679 5675 5670
5689 5688 5688 5687 5688 5688 5690 5691 5691 5690 5690 5691 5692 5692 5694 5694 5694 5695 5697 5697 5697 5697 5696 5696 5696 5696 5695 5694 5694 5694 5694 5693 5691 5689 5687 5685 5682 5679 5677 5674 5669 5664 5658
5672 5673 5674 5675 5676 5676 5676 5680 5680 5679 5679 5679 5679 5682 5682 5682 5683 5683 5685 5685 5685 5686 5686 5686 5685 5685 5685 5684 5684 5684 5684 5683 5681 5678 5675 5673 5671 5669 5666 5663 5658 5652 5645
Wind_Speed
24 27 30 29 27 27 29 28 26 25 24 24 23 23 23 23 22 21 20 19 17 15 16 16 16 17 17 18 18 18 17 15 14 13 12 12 12 12 10 9 8 6 6
25 28 32 30 28 27 28 29 27 26 25 25 24 23 23 22 21 22 22 21 20 16 15 17 17 17 17 17 15 15 13 12 10 9 9 9 8 7 6 7 7 7 7
27 30 32 30 30 27 28 29 27 27 26 25 24 23 22 21 21 21 22 21 19 19 16 16 16 16 16 16 13 11 10 9 7 6 6 5 5 5 4 4 5 6 7
31 32 31 31 29 27 27 29 27 26 26 26 25 23 22 22 22 22 23 22 21 20 19 17 16 15 15 14 14 13 11 9 8 6 7 7 6 6 6 4 4 5 6
33 34 32 32 28 27 28 29 29 27 25 26 25 24 23 23 23 23 24 23 21 22 21 18 16 15 14 13 14 14 12 11 10 10 10 11 10 10 9 6 5 3 4
34 33 32 31 27 27 29 29 31 28 27 25 24 23 22 22 23 24 25 24 22 20 21 18 17 16 15 15 15 14 15 15 14 12 12 13 14 13 10 8 7 8 8
34 36 32 31 29 28 29 29 28 29 27 26 24 24 22 22 23 25 26 26 23 21 20 19 18 19 18 16 16 17 17 17 17 15 13 12 15 15 13 12 11 11 11
34 31 30 30 30 30 31 30 29 29 29 27 25 24 22 22 23 25 26 27 24 22 21 20 19 20 20 18 17 18 18 18 17 17 15 14 14 16 18 17 17 16 16
31 31 34 31 31 31 31 29 30 29 29 28 26 25 24 23 24 25 26 27 27 24 22 22 20 19 20 19 18 19 19 18 17 16 15 15 16 18 20 21 21 22 22
35 32 34 32 31 32 31 30 29 29 29 28 27 26 26 25 25 25 26 27 27 26 24 23 24 21 22 21 20 21 20 18 17 17 16 17 18 21 23 24 25 26 26
35 35 37 31 31 31 31 31 31 31 29 29 27 27 27 26 26 26 26 26 26 27 26 25 24 25 25 25 23 22 21 20 20 20 21 21 21 23 25 27 28 29 29
35 36 35 35 32 31 32 32 33 33 30 30 29 27 27 27 27 28 27 27 28 27 26 27 26 26 27 27 26 25 25 24 24 24 24 25 27 27 28 29 30 28 26
36 36 38 38 34 32 34 34 33 34 34 32 30 28 29 27 27 28 28 29 29 29 26 26 28 27 29 29 30 28 27 27 27 28 29 30 29 29 30 30 31 31 30
37 34 36 39 34 33 35 37 35 36 36 34 32 30 29 28 29 30 27 27 29 30 29 28 28 29 30 31 31 31 31 31 32 31 31 32 32 32 31 31 32 32 31
37 35 36 40 36 34 36 38 37 37 37 36 35 33 31 30 31 33 30 28 28 29 30 30 29 29 30 32 32 33 34 36 36 35 34 35 35 35 33 32 32 32 33
41 36 38 41 40 38 37 39 36 36 36 36 37 36 33 32 34 35 32 31 29 28 31 33 32 31 31 32 34 35 36 37 38 38 38 39 39 38 37 36 36 36 37
42 41 38 40 41 40 39 40 34 34 35 36 38 37 36 33 35 36 33 33 33 31 31 33 33 34 34 33 34 35 37 38 40 41 43 42 41 40 39 39 39 39 40
43 39 39 39 41 39 39 41 36 35 35 37 38 38 36 35 41 37 35 35 34 34 34 33 32 34 35 35 35 36 38 40 42 43 43 42 42 42 41 41 42 41 43
44 41 41 38 38 38 39 40 37 37 37 39 40 38 35 38 41 40 38 38 37 37 37 36 36 33 34 35 36 37 40 40 42 43 42 43 42 43 42 43 42 44 45
44 43 42 40 37 38 40 40 40 40 40 40 40 37 36 37 41 39 38 41 41 40 40 38 38 37 34 36 38 40 41 42 43 43 42 43 43 43 42 43 44 46 48
44 41 41 40 38 42 43 43 43 43 42 42 43 41 39 39 41 42 43 44 44 45 44 41 39 43 38 37 39 43 42 43 44 44 44 44 42 40 41 42 45 47 49
49 45 41 42 40 44 47 47 46 46 44 44 45 45 43 41 44 44 49 42 42 45 43 41 41 41 38 39 43 45 45 45 46 46 44 41 37 37 39 42 45 47 50
54 51 43 42 42 46 47 48 48 48 46 43 43 43 44 44 43 41 45 44 44 45 44 42 43 43 39 46 47 48 47 48 46 44 41 39 38 38 40 43 46 49 54
53 51 50 47 46 46 47 45 49 45 44 43 42 46 47 46 42 42 48 46 48 45 45 41 40 44 47 46 48 51 49 42 43 42 39 37 38 39 41 44 47 51 56
54 52 52 52 48 45 44 41 43 43 45 47 46 48 50 46 45 47 47 47 50 47 45 46 44 46 51 49 50 49 40 40 41 42 39 37 36 37 41 44 48 52 55
54 53 51 50 48 46 47 45 45 45 46 49 51 52 48 49 45 46 48 51 49 50 49 45 44 48 49 50 47 44 37 39 40 41 39 36 35 38 41 45 49 52 54
Wind_Direction
317 318 321 322 323 321 317 318 320 319 318 318 319 314 311 315 315 317 317 314 307 297 293 294 288 280 273 271 271 273 273 275 276 277 278 278 280 287 291 289 288 285 287
306 308 314 316 318 320 318 316 316 317 318 317 317 312 307 307 308 310 313 313 310 301 293 286 280 276 274 270 268 268 271 272 269 268 269 270 276 286 290 288 291 300 299
298 301 304 308 311 314 314 312 314 316 313 313 312 309 301 302 304 303 306 308 307 305 299 288 281 278 277 275 271 268 264 263 269 266 265 264 260 271 281 282 292 299 299
296 299 300 304 306 307 312 315 311 310 310 310 309 309 299 299 301 303 303 306 308 304 300 294 285 278 273 273 275 276 277 278 273 269 262 258 251 249 262 271 268 278 289
297 299 299 302 303 303 309 314 309 306 306 306 306 307 298 297 299 299 301 303 305 305 301 295 285 276 270 267 270 274 278 277 270 264 262 265 261 260 260 261 248 264 285
293 293 298 301 302 301 306 309 307 303 302 300 300 299 294 290 292 297 299 301 299 299 295 292 280 268 263 263 265 269 274 276 274 266 258 259 265 261 255 251 265 267 269
295 294 296 298 301 302 305 302 301 299 296 295 295 292 289 286 289 294 297 299 298 296 291 285 278 264 256 255 261 272 278 282 281 278 271 263 260 260 259 261 267 272 281
295 294 294 295 295 299 299 296 297 298 295 294 292 288 286 285 288 292 295 298 297 291 288 282 275 268 258 252 262 272 278 280 282 283 283 277 266 267 273 277 280 283 284
294 289 289 288 290 293 292 293 295 295 293 293 291 288 284 283 286 290 293 297 298 290 284 281 274 262 257 257 263 273 279 279 277 279 281 278 277 277 277 279 280 282 285
293 286 285 288 288 291 291 289 290 289 287 288 287 286 284 284 285 287 290 292 294 290 280 278 276 263 255 256 262 270 274 273 274 274 275 278 280 281 280 280 282 283 283
284 280 278 286 285 286 289 287 287 286 284 283 282 283 282 280 282 282 283 286 288 288 281 273 271 265 257 259 263 268 267 265 266 270 273 275 278 279 281 281 278 277 279
278 280 281 282 285 284 285 286 286 285 281 278 279 279 279 277 278 281 283 284 285 282 278 272 269 266 263 263 263 262 262 263 265 269 271 274 274 275 277 278 280 278 275
277 279 281 283 284 280 286 287 286 286 282 276 277 277 277 274 276 280 285 287 285 282 276 268 265 263 262 263 265 262 259 259 260 262 264 267 272 276 279 279 278 276 275
277 281 278 279 280 281 284 289 287 285 280 276 275 274 274 271 274 280 282 284 286 284 280 273 264 261 261 263 263 262 262 262 263 265 267 270 274 277 277 277 276 274 273
282 277 278 278 280 278 282 284 285 282 278 274 272 271 270 270 270 278 280 282 284 283 281 278 270 264 263 265 267 264 262 263 266 270 275 280 280 278 278 277 273 271 269
278 276 275 279 281 279 277 277 279 277 275 274 270 270 269 265 265 275 280 282 283 282 281 279 275 269 266 266 267 268 268 268 272 276 279 282 282 279 279 278 277 276 276
281 279 277 275 277 277 273 275 273 271 270 269 269 267 270 266 266 274 278 280 284 282 280 279 276 273 271 270 270 271 272 273 275 278 281 281 280 278 278 277 277 279 282
277 277 272 272 271 270 270 271 270 268 265 265 264 263 266 264 264 266 275 278 279 280 279 277 277 276 274 273 274 275 276 277 279 280 280 281 281 280 282 282 281 288 292
274 275 275 270 267 266 262 266 268 267 267 266 263 261 261 262 273 261 267 273 275 278 279 282 274 273 275 275 275 276 276 278 279 280 283 283 283 282 286 285 288 289 291
278 278 276 271 262 260 259 261 261 261 260 262 263 262 259 263 267 270 267 273 274 275 277 278 282 269 269 273 275 276 276 277 279 281 284 286 285 284 286 286 287 291 293
275 277 273 263 259 258 258 257 260 261 260 261 260 258 255 257 262 266 270 270 274 272 276 277 278 279 263 264 269 272 277 277 281 284 288 289 287 287 288 291 293 294 294
273 267 264 261 257 256 255 257 258 260 261 260 260 260 260 259 256 257 264 271 276 276 274 281 284 276 270 269 268 269 272 278 281 288 290 290 287 289 293 295 295 296 302
273 268 259 255 252 252 253 256 261 262 261 263 266 266 264 261 260 261 262 266 271 274 277 281 281 278 270 277 271 273 275 276 285 290 293 292 290 294 295 296 298 303 307
274 266 262 254 248 248 252 258 259 260 263 263 259 261 262 260 257 255 262 267 265 273 275 274 283 287 281 277 282 279 279 285 289 291 294 291 291 294 297 301 303 306 306
271 269 262 256 246 244 249 248 252 258 264 269 269 263 262 260 259 260 265 268 269 275 273 281 281 284 283 281 286 286 284 286 289 294 292 290 292 298 300 302 303 304 306
263 264 260 259 254 242 244 239 249 257 261 266 270 271 262 258 257 261 265 267 270 273 273 276 276 280 284 288 297 286 284 286 290 292 290 291 295 298 298 302 302 304 307